This demonstration page uses our WeatherBlox Daily Observations layout. Learn more.

39.92423, -83.80882

Hourly Observations for July 30, 2018

Temp ( °F °C ) Dew Point ( °F °C ) Humidity (%) Winds ( mph kmh ) Pressure ( in mb ) Visibility ( mi km ) Precip ( " mm )
12:56 am 00:56 Mostly Clear with Light Rain 66 18.9 65 18.3 96 96 NE 8 13 30.11 1020 10 16.0934 0.03 0.762
1:56 am 01:56 Mostly Clear with Light Rain 65 18.3 65 18.3 100 100 ENE 5 7 30.11 1020 10 16.0934 0.03 0.762
2:56 am 02:56 Mostly Clear with Light Rain 65 18.3 64 17.8 97 97 NE 8 13 30.09 1019 10 16.0934 0.01 0.254
4:56 am 04:56 Clear 64 17.8 63 17.2 96 96 NE 7 11 30.09 1019 10 16.0934 0 0
5:56 am 05:56 Mostly Clear with Light Rain 64 17.8 63 17.2 96 96 NE 8 13 30.07 1018 10 16.0934 0 0.0254
6:56 am 06:56 Sunny 63 17.2 63 17.2 100 100 undefined N/A 30.09 1019 10 16.0934 0.01 0.254
7:56 am 07:56 Sunny 63 17.2 62 16.7 97 97 ENE 9 15 30.07 1018 10 16.0934 0 0
8:56 am 08:56 Sunny 65 18.3 64 17.8 97 97 ENE 7 11 30.07 1018 10 16.0934 0 0.0254
9:56 am 09:56 Partly Cloudy 70 21.1 64 17.8 82 82 E 10 17 30.06 1018 10 16.0934 0.08 2.032
10:56 am 10:56 Mostly Cloudy 73 22.8 64 17.8 74 74 E 13 20 30.05 1018 10 16.0934 0 0
11:56 am 11:56 Cloudy 73 22.8 65 18.3 76 76 E 8 13 30.08 1019 10 16.0934 0 0
12:56 pm 12:56 Mostly Cloudy 73 22.8 65 18.3 76 76 ENE 8 13 30.07 1018 10 16.0934 0 0
1:56 pm 13:56 Cloudy 74 23.3 65 18.3 74 74 NE 7 11 30.07 1018 10 16.0934 0 0
2:56 pm 14:56 Cloudy 75 23.9 65 18.3 71 71 NE 8 13 30.06 1018 10 16.0934 0 0
3:56 pm 15:56 Cloudy 75 23.9 66 18.9 74 74 ENE 8 13 30.05 1018 10 16.0934 0 0
4:56 pm 16:56 Mostly Sunny 75 23.9 64 17.8 69 69 NNE 7 11 30.03 1017 10 16.0934 0 0
5:56 pm 17:56 Mostly Cloudy 75 23.9 65 18.3 71 71 N 6 9 30.03 1017 10 16.0934 0 0
6:56 pm 18:56 Cloudy 73 22.8 66 18.9 79 79 NE 6 9 30.01 1016 10 16.0934 0 0
7:56 pm 19:56 Cloudy 72 22.2 64 17.8 76 76 NE 7 11 30.01 1016 10 16.0934 0 0
8:56 pm 20:56 Cloudy 71 21.7 66 18.9 84 84 NE 9 15 30.01 1016 10 16.0934 0 0
9:56 pm 21:56 Cloudy 70 21.1 65 18.3 84 84 NNE 10 17 30.03 1017 10 16.0934 0 0
10:56 pm 22:56 Cloudy 68 20 65 18.3 90 90 ENE 8 13 30.04 1017 10 16.0934 0 0
11:56 pm 23:56 Cloudy 67 19.4 64 17.8 91 91 NE 7 11 30.04 1017 10 16.0934 0 0

Powered by AerisWeather